F5ZQC-13 Weather Reports


time (UTC)temp
C
wind
direction
speed
KPH
gust
KPH
rain 1hr
cm
rain 24hr
cm
rain mn
cm
humidity
%
barometer
mb
20260507153314 22 292 6.4 9.7 0.00 0.00 0.00 25 1009.3
20260507153113 22 292 6.4 9.7 0.00 0.00 0.00 25 1009.3
20260507152306 21 337 1.6 12.9 0.00 0.00 0.00 25 1009.3
20260507151657 21 315 6.4 14.5 0.00 0.00 0.00 25 1009.5
20260507151252 22 303 12.9 16.1 0.00 0.00 0.00 23 1009.3
20260507151050 22 315 16.1 16.1 0.00 0.00 0.00 23 1009.3
20260507150646 22 315 14.5 16.1 0.00 0.00 0.00 23 1009.4
20260507150443 22 315 6.4 9.7 0.00 0.00 0.00 23 1009.3
20260507145432 22 315 9.7 16.1 0.00 0.00 0.00 23 1009.4
20260507145229 22 303 16.1 17.7 0.00 0.00 0.00 23 1009.6
20260507144825 22 315 16.1 19.3 0.00 0.00 0.00 25 1009.6
20260507144420 22 315 19.3 19.3 0.00 0.00 0.00 25 1009.5
20260507144344 22 315 12.9 17.7 0.00 0.00 0.00 24 1009.5
20260507144218 22 315 12.9 17.7 0.00 0.00 0.00 24 1009.5
20260507144015 22 292 9.7 12.9 0.00 0.00 0.00 24 1009.4
20260507143813 22 292 12.9 20.9 0.00 0.00 0.00 25 1009.5
20260507143409 22 315 11.3 19.3 0.00 0.00 0.00 24 1009.6
20260507143303 22 303 12.9 17.7 0.00 0.00 0.00 23 1009.5
20260507143206 22 303 12.9 17.7 0.00 0.00 0.00 23 1009.5
20260507143004 22 315 16.1 19.3 0.00 0.00 0.00 25 1009.5
20260507142802 22 315 14.5 20.9 0.00 0.00 0.00 24 1009.6
20260507142358 22 292 20.9 20.9 0.00 0.00 0.00 24 1009.6
20260507141954 22 315 14.5 19.3 0.00 0.00 0.00 24 1009.7
20260507141751 22 315 9.7 19.3 0.00 0.00 0.00 23 1009.7
20260507141549 22 315 11.3 19.3 0.00 0.00 0.00 23 1009.8
20260507141143 23 315 14.5 20.9 0.00 0.00 0.00 23 1009.8
20260507140941 23 315 11.3 20.9 0.00 0.00 0.00 23 1009.8
20260507140739 23 292 16.1 22.5 0.00 0.00 0.00 23 1009.8
20260507135725 23 292 11.3 16.1 0.00 0.00 0.00 25 1009.7
20260507135320 23 315 14.5 20.9 0.00 0.00 0.00 24 1009.8
20260507134714 23 292 19.3 20.9 0.00 0.00 0.00 25 1009.8
20260507133703 23 315 9.7 14.5 0.00 0.00 0.00 26 1009.9
20260507133500 23 315 14.5 16.1 0.00 0.00 0.00 26 1009.8
20260507132651 22 292 14.5 16.1 0.00 0.00 0.00 27 1009.9
20260507132449 22 270 11.3 16.1 0.00 0.00 0.00 27 1009.9
20260507132247 22 337 14.5 17.7 0.00 0.00 0.00 27 1010.1
20260507132118 22 315 16.1 19.3 0.00 0.00 0.00 26 1010.1
20260507132044 22 315 16.1 19.3 0.00 0.00 0.00 26 1010.1
20260507131842 22 270 16.1 19.3 0.00 0.00 0.00 27 1009.9
20260507131314 22 315 12.9 17.7 0.00 0.00 0.00 26 1010.2
20260507131235 22 315 12.9 17.7 0.00 0.00 0.00 26 1010.2
20260507131032 22 315 11.3 16.1 0.00 0.00 0.00 27 1010.1
20260507130628 22 292 3.2 16.1 0.00 0.00 0.00 27 1010.2
20260507130426 22 315 14.5 16.1 0.00 0.00 0.00 27 1010.2
20260507125819 22 292 4.8 16.1 0.00 0.00 0.00 29 1010.2
20260507125415 22 315 9.7 16.1 0.00 0.00 0.00 28 1010.1
20260507125212 22 315 11.3 16.1 0.00 0.00 0.00 28 1010.1
20260507125011 22 292 11.3 11.3 0.00 0.00 0.00 29 1010.2
20260507124808 22 270 6.4 14.5 0.00 0.00 0.00 29 1010.2
20260507124404 22 315 11.3 16.1 0.00 0.00 0.00 28 1010.2
20260507123028 22 315 19.3 19.3 0.00 0.00 0.00 28 1010.2
20260507122421 22 270 8.0 19.3 0.00 0.00 0.00 28 1010.3
20260507122219 22 315 14.5 20.9 0.00 0.00 0.00 28 1010.3
20260507121613 22 315 16.1 16.1 0.00 0.00 0.00 29 1010.3
20260507121409 22 315 11.3 12.9 0.00 0.00 0.00 29 1010.3
20260507121207 22 315 6.4 16.1 0.00 0.00 0.00 29 1010.4
20260507120359 22 315 4.8 17.7 0.00 0.00 0.00 29 1010.6
20260507115751 21 315 12.9 14.5 0.00 0.00 0.00 29 1010.8
20260507115347 21 315 14.5 17.7 0.00 0.00 0.00 29 1010.7
20260507115147 21 315 14.5 14.5 0.00 0.00 0.00 31 1010.7
20260507115144 21 315 14.5 14.5 0.00 0.00 0.00 31 1010.7
20260507114739 21 315 6.4 12.9 0.00 0.00 0.00 31 1010.8
20260507114537 21 45 6.4 12.9 0.00 0.00 0.00 30 1010.8
20260507113930 21 270 12.9 12.9 0.00 0.00 0.00 31 1010.8
20260507113526 21 292 12.9 16.1 0.00 0.00 0.00 31 1010.8
20260507113328 21 315 9.7 16.1 0.00 0.00 0.00 31 1010.8
20260507113122 21 315 9.7 17.7 0.00 0.00 0.00 31 1010.9
20260507112919 21 292 8.0 17.7 0.00 0.00 0.00 31 1010.9
20260507112717 21 315 14.5 17.7 0.00 0.00 0.00 31 1011.0
20260507112313 21 315 16.1 16.1 0.00 0.00 0.00 32 1010.9
20260507111705 21 270 9.7 16.1 0.00 0.00 0.00 31 1011.0
20260507111301 21 315 9.7 17.7 0.00 0.00 0.00 31 1011.1
20260507110654 20 315 12.9 19.3 0.00 0.00 0.00 32 1011.2
20260507110250 20 315 14.5 14.5 0.00 0.00 0.00 32 1011.2
20260507105850 20 315 4.8 11.3 0.00 0.00 0.00 33 1011.2
20260507105643 20 270 9.7 11.3 0.00 0.00 0.00 32 1011.3
20260507105239 20 315 6.4 14.5 0.00 0.00 0.00 32 1011.3
20260507105037 20 315 8.0 14.5 0.00 0.00 0.00 32 1011.4
20260507104429 20 315 8.0 14.5 0.00 0.00 0.00 31 1011.4
20260507104108 20 315 9.7 14.5 0.00 0.00 0.00 30 1011.4
20260507104025 20 315 9.7 14.5 0.00 0.00 0.00 30 1011.4
20260507103826 20 292 14.5 14.5 0.00 0.00 0.00 32 1011.3
20260507103418 20 315 4.8 16.1 0.00 0.00 0.00 32 1011.2
20260507102811 20 270 9.7 17.7 0.00 0.00 0.00 31 1011.2
20260507102413 20 292 11.3 12.9 0.00 0.00 0.00 32 1011.3
20260507102205 20 270 11.3 12.9 0.00 0.00 0.00 32 1011.4
20260507102002 20 292 9.7 16.1 0.00 0.00 0.00 32 1011.3
20260507101759 20 270 8.0 16.1 0.00 0.00 0.00 31 1011.3
20260507101558 20 292 9.7 14.5 0.00 0.00 0.00 32 1011.4
20260507101355 20 270 9.7 14.5 0.00 0.00 0.00 32 1011.5
20260507101153 20 270 8.0 11.3 0.00 0.00 0.00 32 1011.3
20260507100344 20 292 9.7 16.1 0.00 0.00 0.00 31 1011.4
20260507095535 20 270 9.7 17.7 0.00 0.00 0.00 31 1011.4
20260507095334 20 315 14.5 17.7 0.00 0.00 0.00 31 1011.4
20260507094928 20 315 9.7 14.5 0.00 0.00 0.00 32 1011.4
20260507094523 20 315 12.9 14.5 0.00 0.00 0.00 31 1011.4
20260507094321 20 292 14.5 16.1 0.00 0.00 0.00 31 1011.5
20260507093717 20 315 9.7 14.5 0.00 0.00 0.00 31 1011.5
20260507093512 20 315 11.3 14.5 0.00 0.00 0.00 31 1011.5
20260507092702 21 292 14.5 14.5 0.00 0.00 0.00 31 1011.5
20260507092258 20 270 8.0 14.5 0.00 0.00 0.00 32 1011.4
20260507092059 21 270 11.3 14.5 0.00 0.00 0.00 32 1011.3
20260507091854 21 303 11.3 12.9 0.00 0.00 0.00 32 1011.4
20260507091652 21 315 6.4 12.9 0.00 0.00 0.00 32 1011.4
20260507091449 21 315 6.4 12.9 0.00 0.00 0.00 32 1011.3
20260507091247 21 292 9.7 9.7 0.00 0.00 0.00 33 1011.4
20260507091048 20 270 8.0 14.5 0.00 0.00 0.00 32 1011.4
20260507090640 20 315 9.7 12.9 0.00 0.00 0.00 32 1011.3
20260507090236 20 303 3.2 11.3 0.00 0.00 0.00 32 1011.3
20260507085831 20 315 9.7 11.3 0.00 0.00 0.00 33 1011.4
20260507085629 20 292 8.0 11.3 0.00 0.00 0.00 33 1011.4
20260507084820 20 315 6.4 11.3 0.00 0.00 0.00 34 1011.4
20260507084622 20 315 6.4 11.3 0.00 0.00 0.00 34 1011.4
20260507084415 20 326 6.4 11.3 0.00 0.00 0.00 34 1011.5
20260507084317 20 0 3.2 11.3 0.00 0.00 0.00 34 1011.4
20260507084214 20 0 3.2 11.3 0.00 0.00 0.00 34 1011.4
20260507083808 19 0 3.2 9.7 0.00 0.00 0.00 34 1011.5
20260507083606 19 0 6.4 9.7 0.00 0.00 0.00 35 1011.5
20260507083408 19 337 3.2 14.5 0.00 0.00 0.00 35 1011.5
20260507082828 18 0 0.0 8.0 0.00 0.00 0.00 35 1011.5
20260507082624 18 337 8.0 8.0 0.00 0.00 0.00 35 1011.4
20260507082422 18 326 6.4 11.3 0.00 0.00 0.00 35 1011.5
20260507082220 18 315 4.8 11.3 0.00 0.00 0.00 35 1011.5
20260507082018 18 337 3.2 6.4 0.00 0.00 0.00 36 1011.4
20260507081211 18 315 8.0 11.3 0.00 0.00 0.00 35 1011.5
20260507075433 19 337 6.4 6.4 0.00 0.00 0.00 33 1011.4
20260507075348 19 337 6.4 6.4 0.00 0.00 0.00 33 1011.4
20260507075146 20 0 4.8 9.7 0.00 0.00 0.00 33 1011.5
20260507074742 20 326 6.4 11.3 0.00 0.00 0.00 33 1011.4
20260507074337 20 337 9.7 9.7 0.00 0.00 0.00 32 1011.4
20260507073930 21 315 4.8 8.0 0.00 0.00 0.00 35 1011.5
20260507073729 21 315 6.4 9.7 0.00 0.00 0.00 35 1011.5
20260507073525 20 270 6.4 9.7 0.00 0.00 0.00 35 1011.4
20260507073323 20 292 6.4 8.0 0.00 0.00 0.00 35 1011.3
20260507072904 20 270 9.7 9.7 0.00 0.00 0.00 34 1011.4
20260507072716 20 270 9.7 9.7 0.00 0.00 0.00 34 1011.4
20260507072513 20 292 3.2 9.7 0.00 0.00 0.00 34 1011.3
20260507072311 20 315 4.8 9.7 0.00 0.00 0.00 34 1011.3
20260507065624 20 315 4.8 8.0 0.00 0.00 0.00 40 1011.4
20260507065421 20 303 6.4 8.0 0.00 0.00 0.00 41 1011.4
20260507065219 19 315 6.4 204.4 0.00 0.00 0.00 41 1011.4
20260507065017 19 315 6.4 204.4 0.00 0.00 0.00 42 1011.3
20260507064512 18 315 4.8 202.8 0.00 0.00 0.00 43 1011.3
20260507064310 18 315 3.2 202.8 0.00 0.00 0.00 42 1011.3
20260507063720 18 247 0.0 199.6 0.00 0.00 0.00 45 1011.4
20260507063518 17 45 0.0 199.6 0.00 0.00 0.00 45 1011.1
20260507063319 17 303 1.6 1.6 0.00 0.00 0.00 46 1011.4
20260507063117 17 337 1.6 1.6 0.00 0.00 0.00 46 1011.1
20260507062713 17 337 0.0 1.6 0.00 0.00 0.00 46 1011.2
20260507062510 16 337 0.0 0.0 0.00 0.00 0.00 49 1011.4
20260507062309 16 337 1.6 3.2 0.00 0.00 0.00 47 1011.4
20260507061323 15 0 1.6 1.6 0.00 0.00 0.00 50 1011.2
20260507060716 15 315 0.0 201.2 0.00 0.00 0.00 49 1011.1
20260507060613 14 315 201.2 201.2 0.00 0.00 0.00 50 1011.1
20260507060219 14 315 1.6 3.2 0.00 0.00 0.00 51 1011.4
20260507060017 13 292 1.6 3.2 0.00 0.00 0.00 51 1011.3
20260507055337 13 292 1.6 3.2 0.00 0.00 0.00 53 1011.3
20260507055136 12 315 3.2 3.2 0.00 0.00 0.00 53 1011.4
20260507054933 12 292 0.0 1.6 0.00 0.00 0.00 53 1011.2
20260507054326 12 337 0.0 0.0 0.00 0.00 0.00 53 1011.3
20260507053921 11 337 0.0 0.0 0.00 0.00 0.00 54 1011.3
20260507053728 11 225 0.0 1.6 0.00 0.00 0.00 54 1011.2
20260507053719 11 33 0.0 1.6 0.00 0.00 0.00 53 1011.4
20260507053517 11 225 0.0 1.6 0.00 0.00 0.00 54 1011.2
20260507053314 11 45 1.6 3.2 0.00 0.00 0.00 54 1011.3
20260507052910 11 0 1.6 3.2 0.00 0.00 0.00 54 1011.4
20260507052707 11 0 3.2 3.2 0.00 0.00 0.00 54 1011.2
20260507052505 10 292 1.6 3.2 0.00 0.00 0.00 55 1011.3
20260507052306 10 0 1.6 3.2 0.00 0.00 0.00 54 1011.2
20260507051859 10 315 1.6 3.2 0.00 0.00 0.00 55 1010.6
20260507051252 10 337 3.2 3.2 0.00 0.00 0.00 55 1011.0
20260507051050 10 0 3.2 3.2 0.00 0.00 0.00 55 1011.1
20260507050333 10 315 4.8 4.8 0.00 0.00 0.00 56 1011.1
20260507050240 10 315 4.8 4.8 0.00 0.00 0.00 56 1011.1
20260507045911 10 348 3.2 3.2 0.00 0.00 0.00 55 1010.9
20260507045836 10 348 3.2 3.2 0.00 0.00 0.00 55 1010.9
20260507045716 10 348 4.8 6.4 0.00 0.00 0.00 55 1010.9
20260507045312 10 337 4.8 4.8 0.00 0.00 0.00 56 1011.0
20260507044756 10 292 3.2 4.8 0.00 0.00 0.00 55 1011.1
20260507044150 10 337 4.8 4.8 0.00 0.00 0.00 55 1011.1
20260507043745 10 292 4.8 4.8 0.00 0.00 0.00 54 1010.9
20260507042733 10 337 3.2 3.2 0.00 0.00 0.00 54 1010.8
20260507042328 10 292 3.2 4.8 0.00 0.00 0.00 59 1010.9
20260507041926 10 281 3.2 3.2 0.00 0.00 0.00 55 1011.0
20260507041722 10 281 1.6 3.2 0.00 0.00 0.00 55 1011.0
20260507041318 10 292 1.6 1.6 0.00 0.00 0.00 55 1011.0
20260507040914 10 292 0.0 1.6 0.00 0.00 0.00 55 1010.9
20260507040712 10 292 0.0 1.6 0.00 0.00 0.00 56 1011.0
20260507035900 10 337 1.6 3.2 0.00 0.00 0.00 55 1010.9
20260507035454 10 337 3.2 3.2 0.00 0.00 0.00 55 1011.0
20260507034521 11 348 1.6 3.2 0.00 0.00 0.00 56 1011.1
20260507034443 11 348 1.6 3.2 0.00 0.00 0.00 56 1011.1
20260507033633 11 337 0.0 0.0 0.00 0.00 0.00 54 1011.1
20260507033229 11 270 0.0 0.0 0.00 0.00 0.00 54 1011.1
20260507032825 11 270 0.0 1.6 0.00 0.00 0.00 53 1011.2
20260507032622 11 270 1.6 1.6 0.00 0.00 0.00 54 1011.2
20260507032421 11 270 1.6 1.6 0.00 0.00 0.00 54 1010.9
20260507032218 11 270 1.6 1.6 0.00 0.00 0.00 53 1011.2
20260507032025 11 292 1.6 3.2 0.00 0.00 0.00 54 1011.2
20260507032023 11 270 1.6 1.6 0.00 0.00 0.00 54 1011.0
20260507031813 11 292 1.6 3.2 0.00 0.00 0.00 54 1011.2
20260507031610 11 270 0.0 3.2 0.00 0.00 0.00 54 1011.2
20260507031409 11 270 1.6 3.2 0.00 0.00 0.00 53 1011.2
20260507031004 11 270 3.2 3.2 0.00 0.00 0.00 53 1011.2
20260507030803 11 270 0.0 1.6 0.00 0.00 0.00 53 1011.1
20260507030602 11 270 1.6 1.6 0.00 0.00 0.00 53 1011.2
20260507030158 11 270 1.6 3.2 0.00 0.00 0.00 53 1011.2
20260507025953 11 270 1.6 4.8 0.00 0.00 0.00 53 1011.1
20260507025753 11 270 3.2 4.8 0.00 0.00 0.00 53 1011.2
20260507025144 11 270 1.6 1.6 0.00 0.00 0.00 54 1011.5
20260507024739 11 270 1.6 1.6 0.00 0.00 0.00 53 1011.3
20260507024335 11 270 1.6 3.2 0.00 0.00 0.00 54 1011.1
20260507024135 11 270 0.0 4.8 0.00 0.00 0.00 52 1011.5
20260507023728 11 270 3.2 6.4 0.00 0.00 0.00 53 1010.9
20260507023323 11 315 4.8 4.8 0.00 0.00 0.00 52 1011.3
20260507022919 11 315 4.8 4.8 0.00 0.00 0.00 52 1011.1
20260507022719 11 315 4.8 4.8 0.00 0.00 0.00 52 1011.2
20260507022312 11 315 1.6 3.2 0.00 0.00 0.00 52 1011.3
20260507021508 11 292 3.2 3.2 0.00 0.00 0.00 53 1011.4
20260507021300 11 292 3.2 3.2 0.00 0.00 0.00 53 1011.1
20260507020856 11 281 3.2 3.2 0.00 0.00 0.00 52 1011.1
20260507020654 11 315 3.2 4.8 0.00 0.00 0.00 53 1011.3
20260507020249 11 292 3.2 4.8 0.00 0.00 0.00 53 1011.3
20260507015845 11 315 4.8 8.0 0.00 0.00 0.00 53 1011.4
20260507015643 11 292 4.8 8.0 0.00 0.00 0.00 53 1011.3
20260507015444 11 315 4.8 6.4 0.00 0.00 0.00 54 1011.3
20260507015242 11 292 4.8 6.4 0.00 0.00 0.00 53 1011.4
20260507015036 11 326 4.8 6.4 0.00 0.00 0.00 53 1011.4
20260507014834 11 281 3.2 4.8 0.00 0.00 0.00 53 1011.5
20260507014637 11 292 4.8 6.4 0.00 0.00 0.00 52 1011.5
20260507014226 11 326 4.8 8.0 0.00 0.00 0.00 52 1011.3
20260507013822 11 281 6.4 8.0 0.00 0.00 0.00 53 1011.5
20260507013621 11 303 4.8 6.4 0.00 0.00 0.00 52 1011.2
20260507013417 11 326 3.2 6.4 0.00 0.00 0.00 52 1011.5
20260507013216 11 315 4.8 6.4 0.00 0.00 0.00 53 1011.5
20260507012811 11 315 3.2 4.8 0.00 0.00 0.00 53 1011.5
20260507012609 11 303 3.2 4.8 0.00 0.00 0.00 52 1011.5
20260507012406 11 303 1.6 4.8 0.00 0.00 0.00 53 1011.5
20260507011800 12 303 3.2 6.4 0.00 0.00 0.00 52 1011.6
20260507010749 12 315 4.8 6.4 0.00 0.00 0.00 52 1011.5
20260507010146 12 315 4.8 6.4 0.00 0.00 0.00 52 1011.5
20260507005737 12 315 4.8 6.4 0.00 0.00 0.00 52 1011.6
20260507005336 12 315 4.8 6.4 0.00 0.00 0.00 53 1011.6
20260507005008 12 303 1.6 6.4 0.00 0.00 0.00 52 1011.7
20260507004928 12 303 1.6 6.4 0.00 0.00 0.00 52 1011.7
20260507004523 12 315 6.4 6.4 0.00 0.00 0.00 52 1011.7
20260507004322 12 315 4.8 6.4 0.00 0.00 0.00 52 1011.9
20260507003714 12 303 3.2 6.4 0.00 0.00 0.00 52 1012.0
20260507003309 12 315 6.4 6.4 0.00 0.00 0.00 52 1011.7
20260507001651 12 315 3.2 4.8 0.00 0.00 0.00 51 1012.1
20260507001247 12 292 3.2 6.4 0.00 0.00 0.00 51 1012.1
20260507001048 12 315 6.4 6.4 0.00 0.00 0.00 51 1011.9
20260507000844 12 315 4.8 4.8 0.00 0.00 0.00 52 1012.2
20260507000641 12 315 4.8 4.8 0.00 0.00 0.00 52 1012.0
20260507000400 12 315 1.6 4.8 0.00 0.00 0.05 53 1012.1
20260506235754 12 315 3.2 6.4 0.00 0.00 0.05 52 1012.1
20260506235350 12 315 3.2 6.4 0.00 0.00 0.05 51 1012.2
20260506235147 12 303 4.8 6.4 0.00 0.00 0.05 51 1012.2
20260506234739 12 292 3.2 6.4 0.00 0.00 0.05 51 1012.1
20260506234609 12 315 6.4 6.4 0.00 0.00 0.05 50 1012.1
20260506234538 12 315 6.4 6.4 0.00 0.00 0.05 50 1012.1
20260506234132 12 270 4.8 8.0 0.00 0.00 0.05 52 1012.1
20260506234002 12 315 6.4 8.0 0.00 0.00 0.05 51 1012.1
20260506233931 12 315 6.4 8.0 0.00 0.00 0.05 51 1012.1
20260506233728 12 270 1.6 9.7 0.00 0.00 0.05 50 1012.1
20260506233323 12 270 6.4 8.0 0.00 0.00 0.05 51 1012.1
20260506233123 12 292 1.6 8.0 0.00 0.00 0.05 51 1012.2
20260506232717 12 315 4.8 8.0 0.00 0.00 0.05 51 1012.2
20260506232312 12 315 4.8 8.0 0.00 0.00 0.05 51 1012.2
20260506231908 12 315 3.2 8.0 0.00 0.00 0.05 51 1011.9
20260506231705 12 292 4.8 8.0 0.00 0.00 0.05 51 1012.2
20260506230856 13 315 6.4 9.7 0.00 0.00 0.05 50 1012.3
20260506230654 13 315 8.0 9.7 0.00 0.00 0.05 50 1012.3
20260506230452 13 326 4.8 12.9 0.00 0.00 0.05 50 1012.2
20260506230251 13 292 11.3 14.5 0.00 0.00 0.05 50 1012.2
20260506225643 13 326 9.7 14.5 0.00 0.00 0.05 50 1012.2
20260506225441 13 292 12.9 12.9 0.00 0.00 0.05 50 1012.2
20260506225237 13 292 8.0 12.9 0.00 0.00 0.05 50 1012.2
20260506224429 13 337 8.0 9.7 0.00 0.00 0.05 51 1012.3
20260506224226 13 281 1.6 4.8 0.00 0.00 0.05 50 1012.3
20260506224024 13 315 1.6 6.4 0.00 0.00 0.05 50 1012.1
20260506223826 13 337 3.2 6.4 0.00 0.00 0.05 50 1012.2
20260506223620 13 0 4.8 4.8 0.00 0.00 0.05 50 1012.3
20260506223215 13 337 1.6 3.2 0.00 0.00 0.05 51 1012.4
20260506223016 13 303 1.6 4.8 0.00 0.00 0.05 52 1012.3
20260506222811 13 270 0.0 6.4 0.00 0.00 0.05 50 1012.3
20260506222609 13 315 3.2 6.4 0.00 0.00 0.05 50 1012.3
20260506222406 13 315 4.8 4.8 0.00 0.00 0.05 50 1012.3
20260506221839 13 270 11.3 11.3 0.00 0.00 0.05 50 1012.3
20260506221759 13 270 11.3 11.3 0.00 0.00 0.05 50 1012.3
20260506221244 13 292 0.0 8.0 0.00 0.00 0.05 50 1012.3
20260506221154 13 292 0.0 8.0 0.00 0.00 0.05 50 1012.3
20260506220950 13 292 4.8 8.0 0.00 0.00 0.05 50 1012.3
20260506220344 13 315 3.2 6.4 0.00 0.00 0.05 49 1012.2
20260506215738 13 0 3.2 11.3 0.00 0.00 0.05 48 1012.2
20260506215131 13 337 0.0 4.8 0.00 0.00 0.05 49 1012.2
20260506214523 13 303 0.0 3.2 0.00 0.00 0.05 48 1012.2
20260506214321 13 292 1.6 4.8 0.00 0.00 0.05 48 1012.2
20260506214118 13 303 3.2 9.7 0.00 0.00 0.05 49 1012.2
20260506213916 13 270 1.6 9.7 0.00 0.00 0.05 48 1012.1
20260506213714 13 315 1.6 4.8 0.00 0.00 0.05 48 1012.3
20260506213317 13 292 0.0 1.6 0.00 0.00 0.05 49 1012.2
20260506211449 13 270 1.6 4.8 0.00 0.00 0.05 48 1012.1
20260506211247 13 292 1.6 4.8 0.00 0.00 0.05 48 1012.2
20260506211044 13 292 3.2 4.8 0.00 0.00 0.05 48 1012.3
20260506210236 13 326 1.6 4.8 0.00 0.00 0.05 48 1012.2
20260506210033 13 315 0.0 1.6 0.00 0.00 0.05 48 1012.2
20260506205831 13 0 0.0 4.8 0.00 0.00 0.05 47 1012.2
20260506205021 13 292 1.6 6.4 0.00 0.00 0.05 46 1012.0
20260506204856 13 303 3.2 6.4 0.00 0.00 0.05 46 1012.2
20260506204819 13 303 3.2 6.4 0.00 0.00 0.05 46 1012.2
20260506204617 13 270 3.2 6.4 0.00 0.00 0.05 45 1012.0
20260506204214 13 315 1.6 8.0 0.00 0.00 0.05 45 1012.1
20260506203808 13 270 3.2 6.4 0.00 0.00 0.05 45 1012.1
20260506202150 13 315 6.4 9.7 0.00 0.00 0.05 45 1011.9
20260506201947 13 315 6.4 9.7 0.00 0.00 0.05 45 1011.8
20260506201139 14 315 3.2 8.0 0.00 0.00 0.05 45 1011.9
20260506200330 14 0 1.6 4.8 0.00 0.00 0.05 45 1011.7
20260506195840 14 337 1.6 8.0 0.00 0.00 0.05 44 1011.5
20260506195723 14 337 1.6 8.0 0.00 0.00 0.05 44 1011.5
20260506195521 14 0 1.6 8.0 0.00 0.00 0.05 44 1011.6
20260506195117 14 337 1.6 6.4 0.00 0.00 0.05 43 1011.6
20260506194914 14 292 3.2 6.4 0.00 0.00 0.05 43 1011.5
20260506193338 15 270 4.8 9.7 0.00 0.00 0.05 43 1011.2
20260506193256 15 270 4.8 9.7 0.00 0.00 0.05 43 1011.2
20260506192649 15 303 6.4 11.3 0.00 0.00 0.05 42 1011.1
20260506192244 15 303 3.2 6.4 0.00 0.00 0.05 42 1011.2
20260506192042 15 315 4.8 8.0 0.00 0.00 0.05 43 1011.1
20260506191234 15 292 1.6 4.8 0.00 0.00 0.05 42 1011.2
20260506191030 15 315 1.6 3.2 0.00 0.00 0.05 42 1011.2
20260506190828 15 270 0.0 4.8 0.00 0.00 0.05 42 1011.1
20260506190729 15 315 1.6 4.8 0.00 0.00 0.05 42 1011.0
20260506190626 15 315 1.6 4.8 0.00 0.00 0.05 42 1011.0
20260506190222 15 292 1.6 3.2 0.00 0.00 0.05 41 1011.0
20260506190024 15 292 1.6 11.3 0.00 0.00 0.05 40 1011.0
20260506185817 15 292 4.8 11.3 0.00 0.00 0.05 40 1010.9
20260506185413 15 303 6.4 9.7 0.00 0.00 0.05 40 1011.0
20260506185251 15 270 1.6 9.7 0.00 0.00 0.05 41 1010.9
20260506185210 15 270 1.6 9.7 0.00 0.00 0.05 41 1010.9
20260506184841 16 292 6.4 9.7 0.00 0.00 0.05 41 1011.0
20260506184805 16 292 6.4 9.7 0.00 0.00 0.05 41 1011.0
20260506184200 16 315 6.4 8.0 0.00 0.00 0.05 42 1010.9
20260506183959 16 315 4.8 9.7 0.00 0.00 0.05 42 1010.9
20260506183840 16 292 6.4 9.7 0.00 0.00 0.05 42 1010.8
20260506183754 16 292 6.4 9.7 0.00 0.00 0.05 42 1010.8
20260506183553 16 270 1.6 4.8 0.00 0.00 0.05 42 1010.9
20260506183149 16 315 3.2 6.4 0.00 0.00 0.05 43 1010.8
20260506182339 16 315 1.6 4.8 0.00 0.00 0.05 42 1010.8
20260506181732 16 315 0.0 3.2 0.00 0.00 0.05 41 1010.7
20260506180922 16 270 1.6 3.2 0.00 0.00 0.05 42 1010.6
20260506180720 16 315 0.0 1.6 0.00 0.00 0.05 41 1010.5
20260506180518 16 270 0.0 6.4 0.00 0.00 0.05 40 1010.6
20260506180316 16 315 4.8 6.4 0.00 0.00 0.05 40 1010.5
20260506180114 16 303 0.0 8.0 0.00 0.00 0.05 41 1010.5
20260506175752 16 292 6.4 6.4 0.00 0.00 0.05 40 1010.4
20260506175709 16 292 6.4 6.4 0.00 0.00 0.05 40 1010.4
20260506175306 16 270 0.0 11.3 0.00 0.00 0.05 40 1010.5
20260506174051 16 270 9.7 14.5 0.00 0.00 0.05 41 1010.3
20260506173647 16 270 6.4 14.5 0.00 0.00 0.05 41 1010.3
20260506173242 16 270 4.8 4.8 0.00 0.00 0.05 41 1010.5
20260506172635 16 270 3.2 8.0 0.00 0.00 0.05 41 1010.2
20260506172233 16 270 1.6 16.1 0.00 0.00 0.05 41 1010.3
20260506172124 16 270 16.1 16.1 0.00 0.00 0.05 41 1010.3
20260506171714 16 315 1.6 12.9 0.00 0.00 0.05 41 1010.2
20260506171309 16 270 11.3 16.1 0.00 0.00 0.05 41 1010.1
20260506171110 16 270 4.8 16.1 0.00 0.00 0.05 41 1010.1
20260506170905 16 270 1.6 6.4 0.00 0.00 0.03 41 1010.1
20260506170500 16 292 8.0 9.7 0.00 0.00 0.03 41 1010.0
20260506164727 16 270 14.5 14.5 0.00 0.00 0.03 41 1009.8
20260506164524 16 270 4.8 24.1 0.00 0.00 0.03 41 1009.9
20260506164220 16 270 24.1 24.1 0.00 0.00 0.03 41 1009.8
20260506164017 16 270 11.3 14.5 0.00 0.00 0.03 42 1009.8
20260506163815 16 315 6.4 20.9 0.00 0.00 0.03 42 1009.7
20260506163613 16 315 4.8 20.9 0.00 0.00 0.03 42 1009.8
20260506163511 16 270 20.9 20.9 0.00 0.00 0.03 42 1009.9
20260506163318 16 326 4.8 11.3 0.00 0.00 0.03 43 1009.8
20260506163118 16 270 3.2 11.3 0.00 0.00 0.03 43 1009.8
20260506162914 16 292 6.4 6.4 0.00 0.00 0.03 43 1009.7
20260506162711 16 270 3.2 14.5 0.00 0.00 0.03 42 1009.7
20260506162307 16 236 1.6 8.0 0.00 0.00 0.03 42 1009.8
20260506162109 16 258 8.0 8.0 0.00 0.00 0.03 42 1009.6
20260506161903 16 270 3.2 4.8 0.00 0.00 0.03 42 1009.6
20260506161706 16 292 1.6 11.3 0.00 0.00 0.03 41 1009.6
20260506161458 16 270 4.8 11.3 0.00 0.00 0.03 41 1009.6
20260506161256 16 315 8.0 11.3 0.00 0.00 0.03 42 1009.5
20260506160738 17 315 4.8 11.3 0.00 0.00 0.03 42 1009.5
20260506160656 17 315 4.8 11.3 0.00 0.00 0.03 42 1009.5
20260506155638 17 326 14.5 19.3 0.00 0.00 0.03 42 1009.4
20260506154627 17 337 3.2 6.4 0.00 0.00 0.03 42 1009.3
20260506154222 17 315 4.8 6.4 0.00 0.00 0.03 41 1009.4
20260506154019 17 258 4.8 6.4 0.00 0.00 0.03 41 1009.2
20260506153615 18 337 3.2 12.9 0.00 0.00 0.03 41 1009.3